Location: Seattle
(47.6064°N, 122.3308°W)
Time: 00:27:07
(UTC-08:00)

A-11 Canister half - Pass Details

Date: 03 December 2020
Orbit: 1524 x 1684 km, 47.3° (Epoch: 21 January)

Event Time Altitude Azimuth Distance (km) Brightness Sun altitude
Rises 03:11:42 0° 197° (SSW) 4,912 - -44.1°
Reaches altitude 10° 03:15:26 10° 186° (S) 3,935 - -43.5°
Exits shadow 03:20:26 24° 159° (SSE) 2,965 10.4 -42.7°
Maximum altitude 03:23:31 28° 133° (SE) 2,763 10.4 -42.2°
Drops below altitude 10° 03:31:34 10° 79° (E) 3,930 11.8 -40.9°
Sets 03:35:16 0° 69° (ENE) 4,905 12.5 -40.2°
